Wind_Speed
14 12 7 5 5 4 1 4 2 6 7 4 4 4 8 13 8 4 15 12 15 13 11 10 11 9 10 10 10 10 10 13 13 11 12 15 15 17 17 18 18 18 18 19 19 19 19 19 19
11 11 4 3 5 6 3 4 5 5 7 7 6 3 2 6 7 10 14 15 16 14 12 11 10 11 11 12 12 11 11 10 10 11 14 15 17 16 17 16 18 17 18 18 18 19 18 18 17
11 6 3 3 5 7 3 5 8 8 8 7 5 2 3 5 7 16 15 20 16 13 13 12 13 15 13 14 14 14 13 13 14 14 15 15 17 16 16 15 16 17 16 17 17 17 18 19 18
6 4 4 7 7 1 3 4 9 10 4 2 0 6 6 6 13 8 20 19 16 14 14 14 15 15 13 13 12 12 13 16 16 15 14 15 16 16 15 15 16 16 15 15 15 16 17 18 19
7 3 7 9 7 0 3 1 7 9 8 7 4 5 5 7 6 17 19 18 17 14 15 14 14 14 13 12 10 10 13 15 15 15 13 15 14 15 14 14 14 15 15 14 14 15 16 17 18
7 3 7 10 10 4 2 3 8 9 6 6 4 6 7 8 13 20 19 17 15 15 14 13 13 14 14 14 12 12 13 13 13 13 14 14 15 15 13 13 13 12 13 14 15 14 14 15 16
11 8 12 11 8 5 3 5 9 8 6 5 3 6 5 8 14 17 17 17 15 14 15 13 13 12 13 13 13 12 14 13 12 13 12 15 14 14 13 12 11 11 12 12 13 13 13 13 14
7 7 15 9 9 7 5 8 7 8 6 5 2 4 5 14 18 18 16 15 15 14 15 15 14 13 12 11 13 13 13 12 12 12 10 14 14 11 11 11 10 10 10 11 11 11 12 12 13
2 8 11 14 9 5 7 9 7 3 7 4 6 2 6 24 21 18 17 16 13 12 15 16 14 13 12 12 13 13 12 12 11 11 13 12 10 9 9 8 9 8 9 10 10 10 10 12 11
9 12 15 5 3 3 7 9 9 6 9 7 8 7 19 24 22 22 21 19 16 15 15 17 15 15 14 12 14 11 12 10 9 9 7 8 8 8 8 8 6 6 7 8 9 9 9 9 5
2 12 5 3 1 2 5 9 7 10 10 9 13 14 19 22 23 22 21 20 19 17 17 17 17 15 14 13 12 11 11 10 9 10 8 8 7 7 6 5 4 3 5 3 4 4 4 5 5
3 5 1 3 1 2 6 6 8 12 3 7 8 19 22 20 23 24 22 20 20 19 19 17 18 16 14 13 12 12 12 12 11 10 10 8 7 6 5 5 5 4 4 3 3 3 4 4 5
5 4 1 2 1 3 0 8 12 12 6 0 10 19 20 20 21 21 21 19 20 20 19 19 17 18 15 12 11 10 9 10 9 9 8 7 7 7 6 5 5 4 3 3 2 2 2 3 3
10 8 7 0 3 1 4 6 2 12 11 7 13 16 17 20 23 22 23 22 22 21 21 19 20 18 16 14 12 11 10 9 9 9 9 8 7 6 6 5 4 4 3 3 2 1 1 1 2
9 13 9 6 3 3 3 7 11 4 10 11 13 14 16 20 23 25 25 24 23 22 21 21 21 21 17 13 13 12 12 11 10 10 10 10 8 8 7 6 5 4 4 3 1 0 0 1 3
10 6 8 11 7 2 3 11 7 7 9 14 14 13 14 18 25 24 23 23 23 22 23 22 22 23 23 17 14 13 13 13 13 11 10 11 10 9 8 7 6 6 5 4 3 2 2 2 2
7 7 13 9 11 4 8 7 3 2 8 11 12 13 13 14 19 22 23 25 25 24 24 24 23 23 23 19 15 14 14 14 14 14 13 13 13 11 8 7 7 8 7 7 6 4 3 4 3
8 8 14 16 10 10 11 17 14 6 6 10 12 13 13 15 17 22 25 25 25 25 25 25 24 22 22 19 17 16 16 17 16 16 16 15 14 15 12 8 9 10 10 9 8 7 5 5 5
16 14 11 9 8 7 17 18 20 20 11 9 10 13 14 16 18 23 25 26 25 25 25 26 26 25 24 23 22 21 22 20 19 18 18 17 17 17 15 12 11 10 11 10 8 8 7 6 4
14 15 14 8 5 5 11 18 16 18 21 17 14 13 15 13 14 20 24 26 28 28 27 27 27 27 29 26 23 22 21 20 20 20 20 22 22 20 18 19 17 16 12 12 12 11 8 6 5
12 14 11 7 4 8 9 16 21 22 20 20 17 14 14 13 15 15 22 28 28 29 29 29 29 30 29 27 24 20 17 18 19 21 21 25 24 23 22 22 23 22 20 19 18 16 14 10 6
8 2 3 8 4 6 7 9 12 19 23 20 21 19 18 16 14 15 21 25 30 32 30 31 30 30 30 29 25 25 23 22 21 24 28 27 27 26 26 26 26 25 23 23 19 17 16 13 10
6 9 8 5 2 4 8 5 7 4 14 19 20 21 20 17 17 18 19 27 31 29 31 31 31 32 31 31 30 27 25 24 21 23 23 26 30 30 27 27 26 26 24 22 18 17 16 14 13
17 13 10 5 2 5 13 11 11 13 13 14 18 20 20 18 17 17 25 25 25 28 29 30 31 32 31 32 32 31 29 26 24 24 22 21 26 31 31 27 27 25 25 24 21 18 16 16 15
1 11 3 2 4 6 3 12 16 9 11 9 13 16 17 17 16 16 15 21 25 28 31 31 31 33 34 35 33 34 32 30 29 26 25 22 23 30 36 33 32 31 29 26 22 19 18 18 17
12 6 5 7 6 3 2 9 4 9 7 14 11 9 8 15 14 12 14 21 24 27 29 29 28 31 31 33 35 34 34 32 31 29 27 27 26 32 39 38 35 32 28 25 22 21 20 19 18
7 5 1 2 2 1 6 8 10 12 14 8 11 7 8 7 8 10 11 17 19 23 28 30 28 28 28 33 32 32 32 33 31 29 29 29 27 25 34 39 36 33 29 28 25 24 23 20 18
12 13 4 4 4 6 6 7 8 7 6 8 8 10 8 8 8 7 8 11 15 16 18 24 30 34 37 32 33 33 33 32 32 29 30 30 28 27 33 36 36 33 30 29 29 26 23 21 20
5 13 6 4 4 3 4 5 3 3 2 3 2 3 3 4 5 5 6 6 8 10 13 17 22 25 26 32 31 30 29 28 29 30 30 34 31 32 31 34 37 35 35 32 30 27 24 24 22
15 14 15 6 6 8 3 9 7 5 4 2 3 3 0 1 3 4 4 6 7 8 10 12 13 16 19 20 22 24 22 24 30 31 33 34 37 33 31 35 37 37 34 34 31 29 27 27 26
Wind_Direction
338 323 318 263 252 245 268 159 48 128 142 85 74 315 40 26 8 53 139 132 135 135 135 125 127 118 111 108 132 132 109 101 102 100 94 96 99 96 86 90 92 87 83 79 76 75 74 74 75
330 325 260 285 258 246 142 121 182 133 91 133 133 144 177 78 54 128 137 143 140 138 134 128 138 133 110 113 114 128 141 128 110 113 105 103 105 102 98 95 95 90 84 80 76 72 73 74 74
313 299 274 257 266 273 32 167 131 115 131 162 141 338 29 70 102 144 140 143 139 139 134 139 137 136 137 126 118 122 124 124 115 110 107 107 106 104 100 99 97 94 88 82 78 74 73 72 71
318 203 231 251 249 47 31 148 130 144 142 198 244 120 100 33 146 143 148 143 144 139 134 137 139 139 140 141 128 131 126 118 115 113 111 108 113 110 104 97 95 98 91 84 81 75 74 71 70
248 246 250 238 242 182 158 85 171 177 148 162 216 119 76 106 113 145 151 147 143 140 140 142 149 146 139 140 129 121 131 121 117 111 111 106 107 106 105 98 96 93 86 84 81 79 76 73 71
233 261 237 234 225 175 180 175 189 183 153 117 210 127 108 119 144 154 151 150 146 145 144 142 147 144 135 139 129 107 126 120 116 116 118 115 106 110 108 106 99 95 89 84 84 82 77 74 71
242 222 237 253 256 197 184 177 192 181 165 162 88 159 95 146 150 158 154 154 146 153 151 144 142 136 145 129 129 115 133 126 124 123 124 111 111 109 114 112 102 94 91 89 87 82 77 75 73
246 251 239 238 236 230 137 170 198 185 144 107 161 175 170 170 159 163 155 155 154 157 158 147 148 143 143 142 142 133 133 137 142 139 129 121 120 117 115 111 109 98 92 90 89 86 76 72 70
310 235 228 230 236 232 153 189 194 77 133 188 160 358 100 151 155 149 161 158 158 173 165 153 153 155 152 146 158 154 146 145 139 131 112 98 108 108 105 131 112 103 95 89 85 85 77 68 60
220 227 231 249 252 247 179 216 175 193 169 175 161 117 131 152 162 163 169 170 173 175 181 161 159 159 156 155 150 150 152 146 151 144 129 130 124 135 132 122 113 105 101 90 79 81 69 58 50
324 235 209 118 16 314 193 210 179 231 206 196 188 155 157 162 174 177 179 179 179 180 183 173 163 163 163 161 160 160 161 163 162 161 152 143 132 126 120 114 93 89 104 93 75 59 70 60 55
138 260 243 123 119 251 191 212 206 231 49 352 173 161 164 178 182 182 184 179 180 185 187 182 170 169 171 168 170 172 170 169 170 173 163 154 149 147 146 144 145 131 134 136 121 103 91 66 48
198 179 156 82 81 211 346 226 226 225 215 24 137 158 173 184 187 186 189 183 183 186 195 189 180 175 178 178 176 179 179 174 173 170 171 162 164 164 157 160 157 150 145 149 130 112 91 70 54
183 170 202 118 323 93 233 222 216 232 184 179 162 177 180 186 189 189 187 191 189 191 194 193 190 189 183 182 181 182 181 182 178 176 182 176 174 168 167 168 167 170 170 167 162 157 84 55 51
163 170 185 188 204 194 250 219 225 221 175 188 188 188 187 191 192 199 194 192 194 193 193 195 192 195 195 191 183 188 186 186 187 189 189 187 181 182 179 184 185 186 186 187 182 226 40 347 355
161 203 185 186 193 233 175 253 206 194 201 208 202 197 192 196 200 202 198 199 197 194 195 194 193 197 202 200 198 196 196 190 191 195 197 194 192 190 191 193 193 193 193 195 189 216 281 293 312
201 182 208 175 194 178 217 240 165 154 236 227 210 207 197 206 203 203 203 203 196 197 196 194 193 196 197 200 203 204 204 203 200 199 199 200 197 192 194 203 207 204 200 204 211 221 265 279 294
149 200 202 207 181 204 206 235 240 195 223 240 243 210 215 209 207 206 205 205 201 198 198 194 194 197 197 198 200 204 208 211 209 206 204 204 202 203 199 203 213 208 212 218 226 229 251 258 288
179 193 202 216 141 197 222 237 242 242 213 233 248 243 221 224 209 207 207 204 204 202 199 199 197 197 196 198 198 202 206 207 211 211 208 207 203 206 205 213 206 211 231 228 224 238 240 264 270
188 199 224 182 166 225 245 247 243 244 241 246 243 241 236 231 215 203 204 204 205 204 204 204 201 200 198 200 204 210 211 212 213 212 209 215 213 212 214 219 221 211 218 222 223 234 235 226 238
193 199 199 192 198 248 288 271 250 240 240 241 234 243 251 238 226 211 206 205 206 208 207 207 206 205 204 203 205 209 214 213 214 212 214 218 215 220 226 227 230 230 225 231 237 235 231 208 219
171 201 110 128 182 250 175 278 248 226 225 222 222 223 230 236 229 224 209 212 208 210 208 211 210 210 208 205 205 205 208 207 212 212 218 226 218 223 228 229 233 235 239 242 238 243 234 217 202
116 112 97 98 104 15 211 252 250 304 227 226 220 220 219 210 210 220 213 213 214 210 209 211 212 213 212 209 208 208 211 215 216 218 217 222 224 223 226 224 231 235 240 242 236 234 226 226 217
128 112 73 59 24 247 233 218 263 242 237 243 241 227 226 210 208 213 213 211 214 213 211 211 212 215 214 213 212 213 214 214 215 218 214 216 215 222 223 222 228 232 233 236 240 229 224 222 213
153 144 108 188 197 235 21 222 251 268 280 252 252 239 223 221 212 212 209 204 210 207 211 210 210 213 213 215 214 216 217 216 221 219 216 211 209 218 221 220 224 223 227 228 225 219 218 212 213
177 198 177 207 210 240 87 233 233 272 291 272 248 274 285 221 221 215 208 207 207 211 208 209 213 218 214 215 217 217 219 220 221 221 220 220 219 222 222 221 222 221 223 218 216 210 207 203 205
171 194 80 83 69 293 215 252 251 246 259 259 245 249 245 251 240 238 227 224 220 215 213 206 209 217 217 218 218 219 222 219 220 221 221 224 222 219 220 219 218 217 214 212 205 204 203 202 201
180 149 147 217 207 240 235 249 250 259 273 230 232 240 265 261 242 239 248 235 228 231 225 221 216 214 218 217 216 216 218 219 221 221 222 223 221 212 221 218 215 210 208 203 198 197 198 200 196
179 183 213 191 232 243 284 250 79 275 330 301 186 165 300 324 307 287 270 255 254 242 232 230 227 223 219 215 215 215 215 215 221 224 227 225 221 217 226 221 209 206 200 200 199 195 196 194 190
206 185 187 192 193 234 324 256 146 143 156 171 136 149 203 255 319 297 287 293 273 260 248 234 235 233 226 215 210 211 211 215 224 227 228 229 229 232 229 220 210 200 200 198 199 195 197 194 188
Height
803 802 798 796 807 799 805 807 792 804 805 803 800 803 805 810 814 832 831 833 836 840 843 845 846 847 849 850 852 853 854 855 855 855 855 856 858 857 857 857 858 860 860 860 860 860 859 859 858
804 802 798 791 808 813 802 797 805 800 802 804 807 807 807 820 823 828 832 835 838 842 845 847 848 850 851 852 854 855 857 857 857 858 858 859 860 860 861 861 862 863 863 864 863 863 862 862 862
805 803 798 800 802 808 804 798 795 803 804 805 808 808 810 824 829 830 833 836 840 844 847 848 850 852 854 855 856 857 859 860 860 860 861 862 863 863 864 865 866 866 867 867 867 867 866 866 865
804 799 797 809 806 797 798 794 795 806 809 806 804 814 821 828 830 832 836 838 842 846 848 850 852 853 855 857 859 860 861 862 863 864 865 866 866 866 867 868 869 869 870 870 870 870 869 869 868
804 798 807 809 802 797 796 794 795 804 804 807 807 814 826 832 833 834 837 840 843 848 850 852 853 854 857 859 861 863 864 865 866 867 868 869 869 870 870 871 873 873 873 873 873 872 872 872 872
803 797 811 812 799 796 796 795 796 800 803 809 812 813 827 834 835 836 839 842 846 849 852 854 856 858 859 861 863 865 867 869 869 870 871 871 871 872 874 875 875 875 875 875 874 875 875 875 875
803 803 807 801 797 802 796 795 798 801 805 809 806 816 830 835 836 838 841 843 847 850 853 855 858 860 862 863 865 867 869 871 872 872 873 873 873 875 876 877 878 878 877 877 877 877 878 878 878
798 800 804 799 803 805 797 798 794 799 805 807 808 815 828 832 836 839 842 845 847 851 853 856 859 862 864 865 867 868 871 873 874 875 875 875 876 877 878 879 879 879 879 879 879 880 880 880 880
802 808 807 805 803 798 797 803 801 802 808 808 811 811 816 829 835 839 842 846 849 851 853 856 859 862 865 866 868 870 872 874 875 876 877 878 879 880 880 880 881 881 881 881 882 882 882 882 882
804 807 801 793 791 796 797 799 805 807 807 810 815 818 823 829 835 838 840 844 849 851 853 855 858 861 864 867 868 871 872 875 877 877 878 879 880 880 881 881 882 883 883 883 883 884 884 884 886
809 803 795 801 801 800 800 802 800 805 808 799 809 815 825 829 833 836 838 841 846 851 852 855 857 861 864 867 869 870 872 874 876 877 878 879 880 881 882 882 883 884 884 885 885 885 886 886 886
819 812 803 808 809 807 804 798 805 803 800 797 796 811 821 827 826 830 835 838 844 849 851 854 857 860 863 865 868 870 871 873 875 877 877 878 880 881 882 883 884 885 886 886 886 885 885 886 886
813 816 813 811 809 807 807 806 803 800 797 802 800 813 819 823 825 830 835 838 842 846 851 853 856 858 861 864 867 870 872 873 875 877 878 879 880 881 882 883 884 885 886 886 887 886 886 886 886
806 810 813 813 813 810 809 804 808 795 795 802 803 811 816 820 823 827 831 835 839 843 848 851 854 857 860 862 865 868 870 872 874 876 877 879 881 881 882 883 884 885 885 886 886 887 887 886 885
802 813 811 812 815 815 809 811 809 794 794 801 803 806 812 817 821 821 827 830 836 839 845 848 851 855 858 860 862 866 868 870 873 874 876 877 879 880 881 883 883 884 885 886 887 887 886 887 887
806 808 817 805 809 811 811 813 792 791 799 798 799 801 808 812 813 819 824 829 833 837 841 844 847 851 855 858 859 863 866 867 869 872 874 875 876 878 880 880 881 882 883 885 885 886 886 886 886
804 816 815 807 807 812 810 812 794 798 799 796 794 797 803 807 811 817 821 825 828 833 837 841 844 847 850 855 858 861 863 865 866 868 870 872 874 876 878 879 880 880 882 882 883 884 884 885 886
813 806 796 797 805 808 808 805 793 794 800 797 791 792 798 802 806 811 816 821 824 827 833 836 840 845 848 852 856 858 860 862 864 865 867 870 871 872 874 876 878 879 879 879 880 881 882 884 883
783 789 792 793 801 805 801 800 795 789 793 796 795 790 792 796 799 805 811 816 821 825 828 832 835 839 844 847 849 852 853 856 859 861 864 866 868 869 871 873 875 876 877 878 879 880 880 881 882
782 790 793 790 803 808 797 794 790 786 782 785 789 789 790 793 794 799 806 811 815 819 823 827 830 833 835 840 845 847 849 852 854 857 859 861 863 865 867 869 871 872 874 875 876 876 878 879 881
787 791 794 802 804 806 805 794 789 780 779 779 781 784 786 787 791 795 801 804 809 811 816 820 824 827 830 834 839 843 846 848 850 852 854 854 857 860 863 865 867 868 869 869 870 871 872 873 876
802 797 796 806 811 809 801 796 762 759 766 771 772 776 780 783 785 788 794 800 800 803 810 814 817 822 825 829 832 835 838 840 843 845 847 849 851 854 857 860 862 864 866 867 867 869 869 869 871
795 798 807 815 818 822 805 815 768 757 766 762 761 766 765 770 776 781 785 790 793 799 802 806 810 814 818 822 824 828 831 834 838 840 841 843 846 849 850 852 856 859 862 862 863 865 867 868 871
797 808 817 822 825 836 806 806 774 762 761 759 754 754 759 761 766 771 775 782 788 792 796 800 803 807 812 815 817 819 823 827 830 833 835 837 840 842 844 846 850 853 855 857 859 860 861 863 865
802 806 831 836 837 814 802 794 776 754 750 754 752 750 752 755 760 764 769 774 779 783 787 791 795 797 802 807 810 813 815 819 823 825 828 831 833 834 837 840 842 844 848 850 852 854 858 860 862
806 795 797 811 806 791 815 798 770 756 757 754 751 752 749 751 755 759 763 768 771 776 778 783 789 791 795 799 801 805 809 811 814 817 821 824 825 825 828 831 834 837 840 845 848 850 853 856 857
806 809 795 807 834 815 787 775 762 756 753 756 753 756 757 756 757 759 762 765 769 771 771 772 778 784 788 791 795 798 802 803 805 809 812 816 819 821 821 824 827 831 833 837 841 846 849 851 853
782 791 810 805 816 808 773 778 768 755 749 747 750 751 752 752 754 757 760 762 765 767 768 770 770 770 774 782 785 786 790 796 799 802 804 807 810 813 815 817 822 824 830 833 834 839 843 847 850
795 791 789 783 793 793 785 762 745 751 753 748 745 749 750 752 754 756 759 761 763 762 763 764 767 768 769 771 775 779 783 788 794 795 798 801 804 806 811 814 815 820 823 828 832 833 838 840 846
778 785 783 786 798 784 788 771 746 748 748 747 747 748 750 754 757 758 758 759 760 761 763 761 763 766 768 769 771 774 778 781 786 789 791 795 798 801 805 808 812 813 819 823 827 829 833 836 840